Weather in Kuzebayevo

Russia / Udmurt Republic     56°04′26″N   52°41′59″E
temp.,
°C
wind,
m/s
gust,
m/s
humid.,
%
clouds,
%
prec.,
mm/h
press.,
hPa
HPBL,
m
29 january, sat
sat2901:00−10e2596100 0.1 1020137
04:00−12ene2296100 0.1 101926
07:00−14ene2296100 0.0 101839
10:00−12e2493100 0.0 1017118
13:00−10se239088 0.0 1016151
16:00−11se229677 0.0 101535
19:00−16ese2299100 0.0 101511
22:00−18sse119999 0.0 10149
30 january, sun
sun3001:00−19se11100100 0.0 101310
04:00−14se2396100 0.0 101289
07:00−11ese369695 0.2 1011178
10:00−10se379682 0.6 1010223
13:00−7sse369496 0.3 1009254
16:00−6se369696 0.4 1009227
19:00−8ese249871 0.3 100967
22:00−12ene229992 0.4 100911
31 january, mon
mon3101:00−13ene229993 0.1 100911
04:00−10ene119777 0.2 100914
07:00−10e119778 0.1 101013
10:00−8s229777 0.3 101166
13:00−5ssw479594 0.1 1012408
16:00−8sse369588 0.2 101388
19:00−9se3996100 0.0 1014182
22:00−5se51296100 0.9 1013467
1 february, tue
tue101:00−3sse61396100 1.6 1012555
04:00−1s71495100 2.9 1011727
07:00−1s71588100 0.1 1011773
10:00−2s81696100 0.3 1011871
13:000s91690100 0.4 1010976
16:000s81591100 0.6 1009860
19:00−1s81591100 0.1 1009705
22:00−2s7159198 0.2 1009697
2 february, wed
wed201:00−2ssw81493100 0.3 1010819
04:00−4ssw71289100 0.5 1012724
07:00−6ssw6129099 0.1 1014480
10:00−7ssw51292100 0.1 1016498
13:00−6ssw5119299 0.0 1017537
16:00−5s479292 0.0 1018282
19:00−7sse41195100 0.0 1019257
22:00−2s61494100 0.4 1018564